Location: De Greiden
(52.9496°N, 5.9137°E)
Time: 00:51:37
(UTC+00:00)

CSL-04 Debris - Pass Details

Date: 24 January 2021
Orbit: 827 x 847 km, 98.9° (Epoch: 26 February)

Event Time Altitude Azimuth Distance (km) Brightness Sun altitude
Rises 18:19:02 0° 159° (SSE) 3,360 7.2 -19.6°
Reaches altitude 10° 18:21:23 10° 159° (SSE) 2,429 6.4 -20.0°
Maximum altitude 18:26:46 85° 72° (ENE) 839 4.0 -20.8°
Drops below altitude 10° 18:32:11 10° 345° (NNW) 2,446 6.7 -21.6°
Sets 18:34:33 0° 345° (NNW) 3,385 7.5 -21.9°
